sat.trackr.live / text

‹ back to catalog

STARLINK-35264

NORAD 65900 · 2025-224U

PAYLOAD ACTIVE UNKNOWN

§ Identity

Operator
Country
US
Launch date
2025-10-07
Launch site
AFETR
Launch vehicle
Mass (kg)
RCS (m²)

Purposes: comms

External: N2YO · Heavens-Above · Gunter

§ Orbital elements

Epoch: 2026-09-20T06:44:00.561984Z

Period
93.85 min
Inclination
53.1572°
Eccentricity
0.0001635
Mean motion
15.34409061 rev/d
Perigee alt
461.6 km
Apogee alt
463.8 km
Semi-major
6,840.8 km
B*
5.3671e-4
RAAN
182.7641°
Arg perigee
111.7756°
Mean anomaly
248.3421°
Rev number
5,472

§ Raw data

STARLINK-352641 65900U 25224U   26263.28056206  .00017806  00000+0  53671-3 0  99992 65900  53.1572 182.7641 0001635 111.7756 248.3421 15.34409061 54722

JSON: /api/v1/satellites/65900 · /tle

For live sub-satellite position, see the globe view (requires WebGL).

§ Visibility from observer

Set your observer location to see the next 7 days of passes ≥ 10°. The values pass through the URL so the page stays shareable.

No JS? Fill the form by hand. The geolocation button needs JavaScript.